Regional Weather Roundup
Issued by NWS

Home | Current Version | Previous Version | Graphics & Text | Print | Product List | Glossary On
Versions: 1 2 3 4 5 6 7 8 9 10 11 12 13 14 15 16 17 18 19 20 21 22 23 24 25 26 27 28 29 30 31 32 33 34 35 36 37 38 39 40 41 42 43 44 45 46 47 48 49 50
000
ASUS43 KFSD 170610
RWRSD

WEATHER ROUNDUP FOR SOUTH DAKOTA
NATIONAL WEATHER SERVICE SIOUX FALLS SD
100 AM CDT THU AUG 17 2017

NOTE: "FAIR" INDICATES FEW OR NO CLOUDS BELOW 12,000 FEET WITH NO
SIGNIFICANT WEATHER AND/OR OBSTRUCTIONS TO VISIBILITY.


SDZ001>005-009-010-012>017-170700-
NORTHWEST AND NORTH CENTRAL SOUTH DAKOTA

CITY           SKY/WX    TMP DP  RH WIND       PRES   REMARKS
BUFFALO          N/A     63  48  58 S12       29.89S
FAITH            N/A     59  50  72 S9        29.96S
MOBRIDGE       CLEAR     58  55  90 N5        29.90R
$$

SDZ012>016-024>037-041>051-057-063-072>074-170700-
SOUTHWEST AND SOUTH CENTRAL SOUTH DAKOTA

CITY           SKY/WX    TMP DP  RH WIND       PRES   REMARKS
RAPID CTY ARPT CLEAR     59  51  75 SE3       29.99F
PIERRE         CLEAR     57  55  93 NW7       29.91R
CUSTER         CLEAR     49  43  80 NW3       30.13S
ELLSWORTH AFB  CLEAR     63  52  67 S6        29.99S
PHILIP         CLEAR     55  49  80 NW6       29.96S
PINE RIDGE     CLEAR     53  51  93 CALM      30.03S
SPEARFISH      FAIR      63  45  51 CALM      30.00F
WINNER         FAIR      59  54  83 SW5       29.94S
$$

SDZ004>011-016>023-039-040-170700-
NORTHEAST SOUTH DAKOTA

CITY           SKY/WX    TMP DP  RH WIND       PRES   REMARKS
ABERDEEN       PTCLDY    61  61 100 NW9       29.84S
WATERTOWN      CLOUDY    64  63  96 NW14      29.76S
BROOKINGS      CLOUDY    65  63  93 NW16G23   29.75R
SISSETON         N/A     65  64  97 N18       29.75F
$$

SDZ017-020-022-023-036>040-048>070-170700-
SOUTHEAST SOUTH DAKOTA

CITY           SKY/WX    TMP DP  RH WIND       PRES   REMARKS
SIOUX FALLS    CLOUDY    67  67 100 NW10G20   29.75S
HURON          PTCLDY    63  63 100 NW13      29.82F
CHAMBERLAIN    CLEAR     61  61  99 W8        29.91R
MITCHELL       CLOUDY    65  64  97 NW12      29.82F
YANKTON        CLOUDY    67  63  87 W16       29.80F
$$

ABBREVIATIONS USED IN REMARKS
   TC - TEMPERATURE IN CELSIUS
  WCI - WIND CHILL INDEX
   HX - HEAT INDEX
  VSB - VISIBILITY




USA.gov is the U.S. government's official web portal to all federal, state and local government web resources and services.